Weather History for Imperial, NE

Change the Weather History Date:

Wednesday, May 22, 2013

  Actual Average Record
Temperature  
Mean Temperature 57 °F 62 °F  
Max Temperature 70 °F 76 °F 95 °F (2012)
Min Temperature 43 °F 49 °F 29 °F (1931)
Degree Days  
Heating Degree Days 8 5  
Month to date heating degree days 198 170  
Cooling Degree Days 0 2  
Month to date cooling degree days 40 22  
Year to date cooling degree days 42 23  
Growing Degree Days 6 (Base 50)    
Moisture  
Dew Point 44 °F    
Average Humidity 68    
Maximum Humidity 96    
Minimum Humidity 40    
Precipitation  
Precipitation 0.00 in 0.10 in 2.11 in (1976)
Sea Level Pressure  
Sea Level Pressure 29.95 in    
Wind  
Wind Speed 11 mph (North)    
Max Wind Speed 21 mph    
Max Gust Speed 26 mph    
Visibility 10 miles    
Events      
T = Trace of Precipitation, MM = Missing Value Source: NWS Daily Summary

Daily Weather History Graph

Daily Weather History Graph

Search for Another Location

Airport:

Trip Planner

Search our weather history database for the weather conditions in past years. The results will help you decide how hot, cold, wet, or windy it might be!

Date:

Astronomy

May. 22, 2013 Rise Set
Actual Time 5:23 AM MDT 8:03 PM MDT
Civil Twilight 4:52 AM MDT 8:34 PM MDT
Nautical Twilight 4:12 AM MDT 9:14 PM MDT
Astronomical Twilight 3:27 AM MDT 9:59 PM MDT
Moon 5:27 PM MDT (5/22) 3:29 AM MDT (5/22)
Length of Visible Light 15h 42m
Length of Day
14h 39m
Waxing Gibbous, 92% of the Moon is Illuminated
May 22
Waxing Gibbous
May 24
Full
May 31
Last Quarter
Jun 8
New
Jun 16
First Quarter

Hourly Weather History & Observations

Time (MDT) Temp. Windchill Dew Point Humidity Pressure Visibility Wind Dir Wind Speed Gust Speed Precip Events Conditions
12:53 AM 48.0 °F - 42.1 °F 80% 29.90 in 10.0 mi WNW 9.2 mph - N/A   Clear
1:53 AM 46.9 °F - 42.1 °F 83% 29.91 in 10.0 mi WNW 8.1 mph - N/A   Clear
2:53 AM 46.0 °F 41.0 °F 42.1 °F 86% 29.92 in 10.0 mi NW 10.4 mph - N/A   Clear
3:53 AM 45.0 °F 40.1 °F 41.0 °F 86% 29.93 in 10.0 mi NW 9.2 mph - N/A   Clear
4:53 AM 43.0 °F 38.2 °F 41.0 °F 93% 29.93 in 10.0 mi NNW 8.1 mph - N/A   Scattered Clouds
5:53 AM 44.1 °F 39.5 °F 41.0 °F 89% 29.94 in 10.0 mi North 8.1 mph - N/A   Mostly Cloudy
6:53 AM 48.0 °F - 43.0 °F 83% 29.95 in 10.0 mi NNW 10.4 mph - N/A   Clear
7:53 AM 51.1 °F - 43.0 °F 74% 29.96 in 10.0 mi North 17.3 mph - N/A   Partly Cloudy
8:13 AM 51.8 °F - 42.8 °F 71% 29.97 in 10.0 mi North 13.8 mph - N/A   Mostly Cloudy
8:20 AM 51.8 °F - 42.8 °F 71% 29.97 in 10.0 mi North 12.7 mph - N/A   Scattered Clouds
8:28 AM 51.8 °F - 42.8 °F 71% 29.97 in 10.0 mi NNW 13.8 mph - N/A   Mostly Cloudy
8:44 AM 53.6 °F - 42.8 °F 67% 29.97 in 10.0 mi North 10.4 mph - N/A   Scattered Clouds
8:53 AM 54.0 °F - 43.0 °F 66% 29.96 in 10.0 mi North 13.8 mph - N/A   Scattered Clouds
9:53 AM 55.9 °F - 44.1 °F 64% 29.96 in 10.0 mi North 10.4 mph 17.3 mph N/A   Partly Cloudy
10:53 AM 57.9 °F - 45.0 °F 62% 29.96 in 10.0 mi NNW 11.5 mph - N/A   Scattered Clouds
11:53 AM 62.1 °F - 46.0 °F 56% 29.94 in 10.0 mi North 9.2 mph - N/A   Clear
12:53 PM 66.0 °F - 46.0 °F 48% 29.92 in 10.0 mi NNW 10.4 mph 18.4 mph N/A   Clear
1:53 PM 66.0 °F - 46.0 °F 48% 29.92 in 10.0 mi NW 9.2 mph 17.3 mph N/A   Clear
2:53 PM 69.1 °F - 46.0 °F 44% 29.91 in 10.0 mi NNW 5.8 mph - N/A   Clear
3:53 PM 69.1 °F - 46.0 °F 44% 29.91 in 10.0 mi NNW 10.4 mph 24.2 mph N/A   Partly Cloudy
4:53 PM 69.1 °F - 45.0 °F 42% 29.92 in 10.0 mi NNE 10.4 mph - N/A   Clear
5:53 PM 69.1 °F - 44.1 °F 40% 29.92 in 10.0 mi NNE 11.5 mph - N/A   Clear
6:53 PM 68.0 °F - 44.1 °F 42% 29.93 in 10.0 mi NNE 12.7 mph - N/A   Clear
7:53 PM 60.1 °F - 46.9 °F 62% 29.97 in 10.0 mi NE 16.1 mph - N/A   Clear
8:53 PM 55.9 °F - 46.0 °F 69% 30.01 in 10.0 mi NE 13.8 mph - N/A   Clear
9:53 PM 53.1 °F - 46.0 °F 77% 30.04 in 10.0 mi NNE 12.7 mph - N/A   Clear
10:53 PM 51.1 °F - 46.0 °F 83% 30.06 in 10.0 mi NE 15.0 mph 21.9 mph N/A   Clear
11:53 PM 50.0 °F - 45.0 °F 83% 30.08 in 10.0 mi NE 13.8 mph - N/A   Scattered Clouds